Hourly Data Report for September 17, 2016

All times are specified in Local Standard Time (LST). Add 1 hour to adjust for Daylight Saving Time where and when it is observed.

CHARLOTTETOWN A
PRINCE EDWARD ISLAND

46°17'21.000" N
63°07'09.000" W
48.50 m
8300301
71706
YYG

Download Data

Hourly Data (September 2016)
Hourly Data Report for September 17, 2016
Temp Definition
°C
Dew Point Temp Definition
°C
Rel Hum Definition
%
Wind Dir Definition
10's deg

Wind Spd Definition
km/h
Visibility Definition
km
Stn Press Definition
kPa
Hmdx Definition


Wind Chill Definition


Weather Definition


TIME
00:00 Legend Double Dagger 13.4 11.1 86 22 17 24.1 101.86     LegendNANA
01:00 Legend Double Dagger 13.2 10.9 86 23 12 24.1 101.86     LegendNANA
02:00 Legend Double Dagger 13.2 11.5 89 24 17 24.1 101.86     Mainly Clear
03:00 Legend Double Dagger 12.8 11.4 91 23 13 24.1 101.83     LegendNANA
04:00 Legend Double Dagger 12.8 11.2 90 23 13 24.1 101.81     LegendNANA
05:00 Legend Double Dagger 12.5 10.8 89 23 14 24.1 101.79     Mainly Clear
06:00 Legend Double Dagger 12.3 10.6 89 24 16 24.1 101.83     LegendNANA
07:00 Legend Double Dagger 13.4 11.5 88 23 15 24.1 101.84     LegendNANA
08:00 Legend Double Dagger 14.2 11.7 85 23 21 24.1 101.84     Mostly Cloudy
09:00 Legend Double Dagger 14.9 12.1 83 22 19 24.1 101.85     LegendNANA
10:00 Legend Double Dagger 16.8 12.2 74 21 26 24.1 101.79     LegendNANA
11:00 Legend Double Dagger 18.2 11.8 66 21 30 24.1 101.76     Mostly Cloudy
12:00 Legend Double Dagger 18.9 11.3 61 22 27 24.1 101.75     LegendNANA
13:00 Legend Double Dagger 20.5 12.6 60 21 21 24.1 101.67     LegendNANA
14:00 Legend Double Dagger 20.9 11.7 55 21 27 24.1 101.60     Mostly Cloudy
15:00 Legend Double Dagger 21.0 11.7 55 22 24 24.1 101.57     LegendNANA
16:00 Legend Double Dagger 20.0 11.9 59 23 17 24.1 101.56     LegendNANA
17:00 Legend Double Dagger 19.5 12.1 62 23 18 24.1 101.54     Mostly Cloudy
18:00 Legend Double Dagger 17.8 12.5 71 24 13 24.1 101.53     LegendNANA
19:00 Legend Double Dagger 16.7 10.4 66 24 16 24.1 101.60     LegendNANA
20:00 Legend Double Dagger 16.9 11.5 70 24 17 24.1 101.61     Mostly Cloudy
21:00 Legend Double Dagger 16.6 11.6 72 22 20 24.1 101.56     LegendNANA
22:00 Legend Double Dagger 15.9 11.9 77 21 17 24.1 101.52     LegendNANA
23:00 Legend Double Dagger 15.8 12.6 81 20 22 24.1 101.45     Mostly Cloudy

Notes on Data Quality.

Legend

  • E = Estimated
  • M = Missing
  • NA = Not Available
  • ‡ = Partner data that is not subject to review by the National Climate Archives
Date modified: